Location: Melque
(41.0517°N, 4.4694°W)
Time: 16:05:32
(UTC+00:00)

Meteor 1-20 Rocket - Pass Details

Date: 08 March 2026
Orbit: 817 x 891 km, 81.2° (Epoch: 15 April)

Event Time Altitude Azimuth Distance (km) Brightness Sun altitude
Rises 19:55:14 0° 205° (SSW) 3,469 7.6 -19.3°
Reaches altitude 10° 19:57:46 10° 211° (SSW) 2,540 6.9 -19.8°
Maximum altitude 20:03:19 46° 284° (WNW) 1,177 5.4 -20.8°
Drops below altitude 10° 20:08:56 10° 358° (N) 2,565 6.9 -21.8°
Sets 20:11:30 0° 4° (N) 3,506 7.5 -22.3°
